Angoon, AK

6:30 PM AKST on December 13, 2019 (GMT -0900)
Angoon

Weather History for PAGN - May, 2019

Change the Weather History Date:

Monday, May 20, 2019

  Actual Average (WUND) Record (WUND)
Temperature  
Mean Temperature 50 °F -  
Max Temperature 60 °F - - (-1)
Min Temperature 42 °F - - (-1)
Degree Days  
Heating Degree Days 14    
Moisture  
Dew Point 46 °F    
Average Humidity 85    
Maximum Humidity 100    
Minimum Humidity 67    
Precipitation  
Precipitation 0.00 in - - ()
Sea Level Pressure  
Sea Level Pressure 29.74 in    
Wind  
Wind Speed 1 mph (WNW)    
Max Wind Speed 7 mph    
Max Gust Speed -    
Visibility 10 miles    
Events      
Averages and records for this station are not official NWS values.
T = Trace of Precipitation, MM = Missing Value Source: NWS Daily Summary

Daily Weather History Graph

Daily Weather History Graph

Search for Another Location

Airport or City:

Astronomy

May. 20, 2019 Rise Set
Actual Time 4:27 AM AKDT 9:23 PM AKDT
Civil Twilight 3:30 AM AKDT 10:20 PM AKDT
Nautical Twilight 1:38 AM AKDT 12:19 AM AKDT
Astronomical Twilight Sun does not rise Sun does not rise
Moon 11:40 PM AKDT (5/20) 5:58 AM AKDT (5/20)
Length of Visible Light 18h 50m
Length of Day
16h 56m
Waning Gibbous, 96% of the Moon is Illuminated
May 20
Waning Gibbous
May 26
Last Quarter
Jun 3
New
Jun 9
First Quarter
Jun 17
Full

Hourly Weather History & Observations

Time (AKDT) Temp. Windchill Dew Point Humidity Pressure Visibility Wind Dir Wind Speed Gust Speed Precip Events Conditions
12:56 AM 45.0 °F - 44.1 °F 97% 29.79 in 10.0 mi Calm Calm - N/A   Overcast
1:56 AM 45.0 °F - 44.1 °F 97% 29.78 in 10.0 mi Calm Calm - N/A   Partly Cloudy
2:56 AM 45.0 °F - 43.0 °F 93% 29.77 in 10.0 mi Calm Calm - N/A   Clear
3:56 AM 44.1 °F - 43.0 °F 96% 29.76 in 10.0 mi Calm Calm - N/A   Clear
4:28 AM 42.8 °F - 42.8 °F 100% 29.79 in 10.0 mi Calm Calm - N/A   Partly Cloudy
4:56 AM 43.0 °F - 43.0 °F 100% 29.76 in 9.0 mi Calm Calm - N/A   Mostly Cloudy
5:08 AM 42.8 °F - 42.8 °F 100% 29.78 in 10.0 mi Calm Calm - N/A   Overcast
5:34 AM 44.6 °F 43.1 °F 42.8 °F 93% 29.79 in 10.0 mi SSE 3.5 mph - N/A   Overcast
5:56 AM 46.9 °F - 46.0 °F 97% 29.77 in 10.0 mi Variable 4.6 mph - N/A   Overcast
6:08 AM 48.2 °F - 46.4 °F 93% 29.79 in 10.0 mi North 3.5 mph - N/A   Overcast
6:56 AM 48.9 °F - 46.9 °F 93% 29.75 in 10.0 mi Variable 3.5 mph - N/A   Overcast
7:12 AM 48.2 °F - 46.4 °F 93% 29.78 in 10.0 mi Calm Calm - N/A   Scattered Clouds
7:56 AM 48.9 °F - 46.0 °F 90% 29.75 in 10.0 mi NNW 3.5 mph - N/A   Overcast
8:56 AM 51.1 °F - 46.9 °F 86% 29.74 in 10.0 mi Calm Calm - N/A   Overcast
9:56 AM 52.0 °F - 46.9 °F 83% 29.72 in 10.0 mi Calm Calm - N/A   Mostly Cloudy
10:56 AM 53.1 °F - 46.9 °F 80% 29.71 in 10.0 mi Calm Calm - N/A   Scattered Clouds
11:56 AM 52.0 °F - 46.9 °F 83% 29.73 in 10.0 mi Calm Calm - 0.00 in   Overcast
12:56 PM 54.0 °F - 46.9 °F 77% 29.72 in 10.0 mi Variable 4.6 mph - N/A   Clear
1:56 PM 55.0 °F - 46.9 °F 74% 29.71 in 10.0 mi Variable 5.8 mph - N/A   Clear
2:56 PM 57.0 °F - 46.9 °F 69% 29.70 in 10.0 mi Variable 4.6 mph - N/A   Clear
3:56 PM 57.0 °F - 46.9 °F 69% 29.69 in 10.0 mi SW 6.9 mph - N/A   Clear
4:56 PM 57.9 °F - 46.9 °F 67% 29.68 in 10.0 mi Variable 3.5 mph - N/A   Clear
5:56 PM 59.0 °F - 48.0 °F 67% 29.68 in 10.0 mi Variable 4.6 mph - N/A   Clear
6:56 PM 55.9 °F - 48.0 °F 75% 29.68 in 10.0 mi Calm Calm - N/A   Scattered Clouds
7:56 PM 57.0 °F - 48.0 °F 72% 29.68 in 10.0 mi Calm Calm - N/A   Scattered Clouds
8:56 PM 55.0 °F - 46.9 °F 74% 29.69 in 10.0 mi Calm Calm - N/A   Overcast
9:56 PM 53.1 °F - 46.9 °F 80% 29.70 in 10.0 mi Calm Calm - 0.00 in   Scattered Clouds
10:56 PM 52.0 °F - 46.9 °F 83% 29.71 in 10.0 mi Calm Calm - N/A   Clear
11:56 PM 53.1 °F - 46.9 °F 80% 29.73 in 10.0 mi Calm Calm - N/A   Partly Cloudy